Regional Weather Roundup
Issued by NWS Goodland, KS

Home | Current Version | Previous Version | Graphics & Text | Print | Product List | Glossary On
Versions: 1 2 3 4 5 6 7 8 9 10 11 12 13 14 15 16 17 18 19 20 21 22 23 24 25 26 27 28 29 30 31 32 33 34 35 36 37 38 39 40 41 42 43 44 45 46 47 48 49 50
000
ASUS43 KGLD 200459
RWRGLD

GOODLAND FORECAST AREA HOURLY WEATHER ROUNDUP
NATIONAL WEATHER SERVICE GOODLAND KS
1000 PM MST THU JAN 19 2017

...OFFICIAL OBSERVATIONS...

CITY           SKY/WX    TMP DP  RH WIND       PRES   REMARKS
GOODLAND KS    CLOUDY    33  33 100 S9        29.54S FOG
HILL CITY KS   FOG       40  40 100 CALM      29.57F VSB 1/4
IMPERIAL NEB   FOG       33  33 100 SW9       29.55R VSB 1/2
MCCOOK NEB     FOG       34  34 100 S5        29.56S VSB 1/2
AKRON CO       CLOUDY    34  22  61 CALM      29.52R
BURLINGTON CO  FOG       30  30 100 S10       29.53F VSB 1/4
LIMON CO       CLOUDY    20  19  96 N6        29.52F
$$

...UNOFFICIAL OBSERVATIONS...

CITY           SKY/WX    TMP DP  RH WIND       PRES   REMARKS
NORTON KS      FOG       37  36  93 CALM      29.56F VSB 1/4
SHARON SPRINGS   N/A     35  34  96 CALM        N/A
KIT CARSON CO    N/A     27  24  89 CALM        N/A
YUMA CO        FAIR      23  21  93 W8        29.52S
$$



USA.gov is the U.S. government's official web portal to all federal, state and local government web resources and services.